Find Starlink 1448

NORAD ID: 45665 Int'l Des: 2020-035 Owner: SPXS Country: US Constellation: starlink operational
LEOCIRCULAR

实时位置

正在加载3D地球...

关于 Starlink 1448

正在加载描述...

即将过境

Passes for default location (London). Set your location on the main map for personalized predictions.

高度历史

Loading altitude history...

两行轨道根数

1 45665U 20035J 26127.25670484 .00039708 00000-0 40384-3 0 9999
2 45665 53.0440 128.0053 0007390 2.8136 357.2918 15.64758546328056
Epoch: May 7, 2026 • Age: 7 hours

当前状态

高度 379.6 km
速度 7.68 km/s
星下点 33.94°N, 142.03°W
发射日期 Jun 4, 2020
运行时间 5.9 years
类型 internet

技术详情

分类 Payload
质量 260.00 kg
干质量 248.00 kg
总质量 260.00 kg
长度 0.20 m
直径 2.80 m
跨度 9.00 m
形状 Box + pan
制造商 SPXS
平台类型 Starlink
阶段状态 In Orbit
所有者/国家 SPXS/US

Most Searched